Location: Unspecified
(58.7730°N, 5.8460°E)
Time: 16:18:36
(UTC+02:00)

CZ-3 Stage 3 - Visible Passes

Search period start: 29 August 2016 00:00
Search period end: 08 September 2016 00:00
Orbit: 482 x 34721 km, 30.6° (Epoch: 27 August)

Date Brightness Start Highest point End Pass type
(mag) Time Alt. Az. Time Alt. Az. Time Alt. Az.
29 Aug 6.0 21:00:02 10° W 22:03:28 22° SW 22:14:41 10° S visible
01 Sep 6.1 20:47:00 10° W 21:54:33 22° SW 22:06:02 10° S visible
04 Sep 6.1 20:33:23 10° W 21:45:36 22° SW 21:57:22 10° S visible
07 Sep 6.2 20:19:00 10° W 21:36:37 22° SW 21:48:41 10° S visible
